iso_date,epoch_date,Year,Hour,Min,DOY,POS_DOY,Lat,Lon,BP,Ts,Ta,has_bp,has_ts,has_ta,BuoyID,Buoy_Type,Buoy_Owner,Logistics,Hemisphere
2018-01-03T07:59:31Z,1514966371,2018,8,0,3.333,3.333,-73.0542,-130.1446,979.4,-0.61,-999.0,yes,yes,no,300234064034030,BD2GI,AOML,Palmer,South
2018-01-03T09:00:00Z,1514970000,2018,9,0,3.375,3.375,-73.0522,-130.1918,978.9,-1.4,-999.0,yes,yes,no,300234064034030,BD2GI,AOML,Palmer,South
2018-01-03T10:00:28Z,1514973629,2018,10,0,3.417,3.417,-73.053,-130.228,978.6,-0.88,-999.0,yes,yes,no,300234064034030,BD2GI,AOML,Palmer,South
2018-01-03T10:59:31Z,1514977171,2018,11,0,3.458,3.458,-73.0502,-130.2668,978.4,-1.47,-999.0,yes,yes,no,300234064034030,BD2GI,AOML,Palmer,South
2018-01-03T12:00:00Z,1514980800,2018,12,0,3.5,3.5,-73.0482,-130.2938,978.0,-1.41,-999.0,yes,yes,no,300234064034030,BD2GI,AOML,Palmer,South
2018-01-03T13:00:28Z,1514984429,2018,13,0,3.542,3.542,-73.0446,-130.3234,977.8,-0.93,-999.0,yes,yes,no,300234064034030,BD2GI,AOML,Palmer,South
2018-01-03T13:59:31Z,1514987971,2018,14,0,3.583,3.583,-73.04,-130.36,977.8,-0.91,-999.0,yes,yes,no,300234064034030,BD2GI,AOML,Palmer,South
2018-01-03T15:00:00Z,1514991600,2018,15,0,3.625,3.625,-73.0352,-130.3846,977.9,-1.08,-999.0,yes,yes,no,300234064034030,BD2GI,AOML,Palmer,South
2018-01-03T16:00:28Z,1514995229,2018,16,0,3.667,3.667,-73.0346,-130.4154,977.8,-0.88,-999.0,yes,yes,no,300234064034030,BD2GI,AOML,Palmer,South
2018-01-03T16:59:31Z,1514998771,2018,17,0,3.708,3.708,-73.0302,-130.44,977.6,-1.2,-999.0,yes,yes,no,300234064034030,BD2GI,AOML,Palmer,South
2018-01-03T18:00:00Z,1515002400,2018,18,0,3.75,3.75,-73.0248,-130.4556,976.8,-1.01,-999.0,yes,yes,no,300234064034030,BD2GI,AOML,Palmer,South
2018-01-03T19:00:28Z,1515006029,2018,19,0,3.792,3.792,-73.019,-130.4698,977.2,-0.82,-999.0,yes,yes,no,300234064034030,BD2GI,AOML,Palmer,South
2018-01-03T19:59:31Z,1515009571,2018,20,0,3.833,3.833,-73.0106,-130.494,976.9,-0.89,-999.0,yes,yes,no,300234064034030,BD2GI,AOML,Palmer,South
2018-01-03T21:00:00Z,1515013200,2018,21,0,3.875,3.875,-73.001,-130.5192,976.5,-1.04,-999.0,yes,yes,no,300234064034030,BD2GI,AOML,Palmer,South
2018-01-03T22:00:28Z,1515016829,2018,22,0,3.917,3.917,-72.9908,-130.5452,976.2,-0.77,-999.0,yes,yes,no,300234064034030,BD2GI,AOML,Palmer,South
2018-01-03T22:59:31Z,1515020371,2018,23,0,3.958,3.958,-72.9814,-130.5772,975.7,-0.77,-999.0,yes,yes,no,300234064034030,BD2GI,AOML,Palmer,South
2018-01-04T00:00:00Z,1515024000,2018,0,0,4.0,4.0,-72.9722,-130.6062,975.6,-0.9,-999.0,yes,yes,no,300234064034030,BD2GI,AOML,Palmer,South
2018-01-04T01:00:28Z,1515027629,2018,1,0,4.042,4.042,-72.9654,-130.6418,975.6,-0.93,-999.0,yes,yes,no,300234064034030,BD2GI,AOML,Palmer,South
2018-01-04T01:59:31Z,1515031171,2018,2,0,4.083,4.083,-72.9592,-130.6708,975.4,-1.17,-999.0,yes,yes,no,300234064034030,BD2GI,AOML,Palmer,South
2018-01-04T03:00:00Z,1515034800,2018,3,0,4.125,4.125,-72.9518,-130.6904,975.3,-1.45,-999.0,yes,yes,no,300234064034030,BD2GI,AOML,Palmer,South
2018-01-04T04:00:28Z,1515038429,2018,4,0,4.167,4.167,-72.9428,-130.7078,974.9,-1.05,-999.0,yes,yes,no,300234064034030,BD2GI,AOML,Palmer,South
2018-01-04T04:59:31Z,1515041971,2018,5,0,4.208,4.208,-72.934,-130.7194,974.8,-0.87,-999.0,yes,yes,no,300234064034030,BD2GI,AOML,Palmer,South
2018-01-04T06:00:00Z,1515045600,2018,6,0,4.25,4.25,-72.9254,-130.7222,974.7,-1.07,-999.0,yes,yes,no,300234064034030,BD2GI,AOML,Palmer,South
2018-01-04T07:00:28Z,1515049229,2018,7,0,4.292,4.292,-72.916,-130.7306,974.5,-1.51,-999.0,yes,yes,no,300234064034030,BD2GI,AOML,Palmer,South
2018-01-04T07:59:31Z,1515052771,2018,8,0,4.333,4.333,-72.9062,-130.7344,974.6,-1.34,-999.0,yes,yes,no,300234064034030,BD2GI,AOML,Palmer,South
2018-01-04T09:00:00Z,1515056400,2018,9,0,4.375,4.375,-72.897,-130.7342,974.7,-1.47,-999.0,yes,yes,no,300234064034030,BD2GI,AOML,Palmer,South
2018-01-04T10:00:28Z,1515060029,2018,10,0,4.417,4.417,-72.8912,-130.734,974.8,-1.28,-999.0,yes,yes,no,300234064034030,BD2GI,AOML,Palmer,South
2018-01-04T10:59:31Z,1515063571,2018,11,0,4.458,4.458,-72.8858,-130.7342,975.2,-1.3,-999.0,yes,yes,no,300234064034030,BD2GI,AOML,Palmer,South
2018-01-04T12:00:00Z,1515067200,2018,12,0,4.5,4.5,-72.88,-130.737,975.6,-1.26,-999.0,yes,yes,no,300234064034030,BD2GI,AOML,Palmer,South
2018-01-04T13:00:28Z,1515070829,2018,13,0,4.542,4.542,-72.8756,-130.7412,976.2,-1.4,-999.0,yes,yes,no,300234064034030,BD2GI,AOML,Palmer,South
2018-01-04T13:59:31Z,1515074371,2018,14,0,4.583,4.583,-72.8718,-130.745,976.9,-1.49,-999.0,yes,yes,no,300234064034030,BD2GI,AOML,Palmer,South
2018-01-04T15:00:00Z,1515078000,2018,15,0,4.625,4.625,-72.8698,-130.7448,977.8,-1.4,-999.0,yes,yes,no,300234064034030,BD2GI,AOML,Palmer,South
2018-01-04T16:00:28Z,1515081629,2018,16,0,4.667,4.667,-72.87,-130.7364,978.5,-1.26,-999.0,yes,yes,no,300234064034030,BD2GI,AOML,Palmer,South
2018-01-04T16:59:31Z,1515085171,2018,17,0,4.708,4.708,-72.8706,-130.7264,979.1,-1.4,-999.0,yes,yes,no,300234064034030,BD2GI,AOML,Palmer,South
2018-01-04T18:00:00Z,1515088800,2018,18,0,4.75,4.75,-72.8716,-130.7174,980.0,-0.84,-999.0,yes,yes,no,300234064034030,BD2GI,AOML,Palmer,South
2018-01-04T19:00:28Z,1515092429,2018,19,0,4.792,4.792,-72.8726,-130.7058,980.9,-0.88,-999.0,yes,yes,no,300234064034030,BD2GI,AOML,Palmer,South
2018-01-04T19:59:31Z,1515095971,2018,20,0,4.833,4.833,-72.8738,-130.6938,981.7,-0.76,-999.0,yes,yes,no,300234064034030,BD2GI,AOML,Palmer,South
2018-01-04T21:00:00Z,1515099600,2018,21,0,4.875,4.875,-72.8768,-130.685,982.4,-0.94,-999.0,yes,yes,no,300234064034030,BD2GI,AOML,Palmer,South
2018-01-04T22:00:28Z,1515103229,2018,22,0,4.917,4.917,-72.879,-130.6754,983.2,-0.59,-999.0,yes,yes,no,300234064034030,BD2GI,AOML,Palmer,South
2018-01-04T22:59:31Z,1515106771,2018,23,0,4.958,4.958,-72.8782,-130.6754,984.0,-0.58,-999.0,yes,yes,no,300234064034030,BD2GI,AOML,Palmer,South
2018-01-05T00:00:00Z,1515110400,2018,0,0,5.0,5.0,-72.8774,-130.679,984.5,-0.55,-999.0,yes,yes,no,300234064034030,BD2GI,AOML,Palmer,South
2018-01-05T01:00:28Z,1515114029,2018,1,0,5.042,5.042,-72.8764,-130.6866,985.0,-0.59,-999.0,yes,yes,no,300234064034030,BD2GI,AOML,Palmer,South
2018-01-05T01:59:31Z,1515117571,2018,2,0,5.083,5.083,-72.8766,-130.6966,985.5,-0.72,-999.0,yes,yes,no,300234064034030,BD2GI,AOML,Palmer,South
2018-01-05T03:00:00Z,1515121200,2018,3,0,5.125,5.125,-72.8836,-130.7136,985.9,-1.03,-999.0,yes,yes,no,300234064034030,BD2GI,AOML,Palmer,South
2018-01-05T04:00:28Z,1515124829,2018,4,0,5.167,5.167,-72.8904,-130.7298,986.3,-0.81,-999.0,yes,yes,no,300234064034030,BD2GI,AOML,Palmer,South
2018-01-05T04:59:31Z,1515128371,2018,5,0,5.208,5.208,-72.8966,-130.742,986.8,-0.88,-999.0,yes,yes,no,300234064034030,BD2GI,AOML,Palmer,South
2018-01-05T06:00:00Z,1515132000,2018,6,0,5.25,5.25,-72.9024,-130.7516,987.3,-0.83,-999.0,yes,yes,no,300234064034030,BD2GI,AOML,Palmer,South
2018-01-05T07:00:28Z,1515135629,2018,7,0,5.292,5.292,-72.9076,-130.7592,987.5,-0.89,-999.0,yes,yes,no,300234064034030,BD2GI,AOML,Palmer,South
2018-01-05T07:59:31Z,1515139171,2018,8,0,5.333,5.333,-72.911,-130.7654,988.0,-0.96,-999.0,yes,yes,no,300234064034030,BD2GI,AOML,Palmer,South
2018-01-05T09:00:00Z,1515142800,2018,9,0,5.375,5.375,-72.915,-130.7684,988.2,-1.16,-999.0,yes,yes,no,300234064034030,BD2GI,AOML,Palmer,South
2018-01-05T10:00:28Z,1515146429,2018,10,0,5.417,5.417,-72.917,-130.7752,988.5,-0.98,-999.0,yes,yes,no,300234064034030,BD2GI,AOML,Palmer,South
2018-01-05T10:59:31Z,1515149971,2018,11,0,5.458,5.458,-72.9166,-130.782,988.7,-0.95,-999.0,yes,yes,no,300234064034030,BD2GI,AOML,Palmer,South
2018-01-05T12:00:00Z,1515153600,2018,12,0,5.5,5.5,-72.916,-130.7948,989.0,-0.94,-999.0,yes,yes,no,300234064034030,BD2GI,AOML,Palmer,South
2018-01-05T13:00:28Z,1515157229,2018,13,0,5.542,5.542,-72.9164,-130.8096,989.1,-0.92,-999.0,yes,yes,no,300234064034030,BD2GI,AOML,Palmer,South
2018-01-05T13:59:31Z,1515160771,2018,14,0,5.583,5.583,-72.9186,-130.828,989.2,-0.81,-999.0,yes,yes,no,300234064034030,BD2GI,AOML,Palmer,South
2018-01-05T15:00:00Z,1515164400,2018,15,0,5.625,5.625,-72.9226,-130.8444,989.3,-0.81,-999.0,yes,yes,no,300234064034030,BD2GI,AOML,Palmer,South
2018-01-05T16:00:28Z,1515168029,2018,16,0,5.667,5.667,-72.9274,-130.8548,989.1,-0.73,-999.0,yes,yes,no,300234064034030,BD2GI,AOML,Palmer,South
2018-01-05T16:59:31Z,1515171571,2018,17,0,5.708,5.708,-72.933,-130.862,989.1,-0.76,-999.0,yes,yes,no,300234064034030,BD2GI,AOML,Palmer,South
2018-01-05T18:00:00Z,1515175200,2018,18,0,5.75,5.75,-72.938,-130.8608,989.0,-0.7,-999.0,yes,yes,no,300234064034030,BD2GI,AOML,Palmer,South
2018-01-05T19:00:28Z,1515178829,2018,19,0,5.792,5.792,-72.9422,-130.8544,988.9,-0.59,-999.0,yes,yes,no,300234064034030,BD2GI,AOML,Palmer,South
2018-01-05T19:59:31Z,1515182371,2018,20,0,5.833,5.833,-72.9448,-130.845,988.8,-0.55,-999.0,yes,yes,no,300234064034030,BD2GI,AOML,Palmer,South
2018-01-05T21:00:00Z,1515186000,2018,21,0,5.875,5.875,-72.9452,-130.831,988.7,-0.49,-999.0,yes,yes,no,300234064034030,BD2GI,AOML,Palmer,South
2018-01-05T22:00:28Z,1515189629,2018,22,0,5.917,5.917,-72.9434,-130.8208,988.6,-0.44,-999.0,yes,yes,no,300234064034030,BD2GI,AOML,Palmer,South
2018-01-05T22:59:31Z,1515193171,2018,23,0,5.958,5.958,-72.9406,-130.8214,988.5,-0.42,-999.0,yes,yes,no,300234064034030,BD2GI,AOML,Palmer,South
2018-01-06T00:00:00Z,1515196800,2018,0,0,6.0,6.0,-72.9356,-130.8268,988.4,-0.4,-999.0,yes,yes,no,300234064034030,BD2GI,AOML,Palmer,South
2018-01-06T01:00:28Z,1515200429,2018,1,0,6.042,6.042,-72.9316,-130.834,988.2,-0.49,-999.0,yes,yes,no,300234064034030,BD2GI,AOML,Palmer,South
2018-01-06T01:59:31Z,1515203971,2018,2,0,6.083,6.083,-72.9296,-130.841,987.8,-0.5,-999.0,yes,yes,no,300234064034030,BD2GI,AOML,Palmer,South
2018-01-06T03:00:00Z,1515207600,2018,3,0,6.125,6.125,-72.9274,-130.8456,987.4,-0.67,-999.0,yes,yes,no,300234064034030,BD2GI,AOML,Palmer,South
2018-01-06T04:00:28Z,1515211229,2018,4,0,6.167,6.167,-72.9252,-130.8462,987.2,-0.6,-999.0,yes,yes,no,300234064034030,BD2GI,AOML,Palmer,South
2018-01-06T04:59:31Z,1515214771,2018,5,0,6.208,6.208,-72.9232,-130.8448,987.0,-1.02,-999.0,yes,yes,no,300234064034030,BD2GI,AOML,Palmer,South
2018-01-06T06:00:00Z,1515218400,2018,6,0,6.25,6.25,-72.9198,-130.8376,986.7,-1.38,-999.0,yes,yes,no,300234064034030,BD2GI,AOML,Palmer,South
2018-01-06T07:00:28Z,1515222029,2018,7,0,6.292,6.292,-72.916,-130.8288,986.4,-1.19,-999.0,yes,yes,no,300234064034030,BD2GI,AOML,Palmer,South
2018-01-06T07:59:31Z,1515225571,2018,8,0,6.333,6.333,-72.9114,-130.823,986.1,-1.7,-999.0,yes,yes,no,300234064034030,BD2GI,AOML,Palmer,South
2018-01-06T09:00:00Z,1515229200,2018,9,0,6.375,6.375,-72.9062,-130.8174,985.4,-1.74,-999.0,yes,yes,no,300234064034030,BD2GI,AOML,Palmer,South
2018-01-06T10:00:28Z,1515232829,2018,10,0,6.417,6.417,-72.9004,-130.8144,984.8,-0.83,-999.0,yes,yes,no,300234064034030,BD2GI,AOML,Palmer,South
2018-01-06T10:59:31Z,1515236371,2018,11,0,6.458,6.458,-72.8998,-130.816,984.2,-0.45,-999.0,yes,yes,no,300234064034030,BD2GI,AOML,Palmer,South
2018-01-06T12:00:00Z,1515240000,2018,12,0,6.5,6.5,-72.8988,-130.8222,983.8,-0.42,-999.0,yes,yes,no,300234064034030,BD2GI,AOML,Palmer,South
2018-01-06T13:00:28Z,1515243629,2018,13,0,6.542,6.542,-72.8982,-130.8302,982.9,-0.4,-999.0,yes,yes,no,300234064034030,BD2GI,AOML,Palmer,South
2018-01-06T13:59:31Z,1515247171,2018,14,0,6.583,6.583,-72.8984,-130.8398,982.1,-0.39,-999.0,yes,yes,no,300234064034030,BD2GI,AOML,Palmer,South
2018-01-06T15:00:00Z,1515250800,2018,15,0,6.625,6.625,-72.8992,-130.8502,981.4,-0.35,-999.0,yes,yes,no,300234064034030,BD2GI,AOML,Palmer,South
2018-01-06T16:00:28Z,1515254429,2018,16,0,6.667,6.667,-72.9008,-130.8602,980.6,-0.31,-999.0,yes,yes,no,300234064034030,BD2GI,AOML,Palmer,South
2018-01-06T16:59:31Z,1515257971,2018,17,0,6.708,6.708,-72.9038,-130.8668,979.8,-0.26,-999.0,yes,yes,no,300234064034030,BD2GI,AOML,Palmer,South
2018-01-06T18:00:00Z,1515261600,2018,18,0,6.75,6.75,-72.9068,-130.8704,979.4,-0.17,-999.0,yes,yes,no,300234064034030,BD2GI,AOML,Palmer,South
2018-01-06T19:00:28Z,1515265229,2018,19,0,6.792,6.792,-72.9086,-130.8706,978.6,-0.22,-999.0,yes,yes,no,300234064034030,BD2GI,AOML,Palmer,South
2018-01-06T19:59:31Z,1515268771,2018,20,0,6.833,6.833,-72.91,-130.867,978.1,-0.08,-999.0,yes,yes,no,300234064034030,BD2GI,AOML,Palmer,South
2018-01-06T21:00:00Z,1515272400,2018,21,0,6.875,6.875,-72.9106,-130.865,977.7,-0.43,-999.0,yes,yes,no,300234064034030,BD2GI,AOML,Palmer,South
2018-01-06T22:00:28Z,1515276029,2018,22,0,6.917,6.917,-72.9108,-130.866,977.2,-0.54,-999.0,yes,yes,no,300234064034030,BD2GI,AOML,Palmer,South
2018-01-06T22:59:31Z,1515279571,2018,23,0,6.958,6.958,-72.911,-130.8688,976.8,-0.69,-999.0,yes,yes,no,300234064034030,BD2GI,AOML,Palmer,South
2018-01-07T00:00:00Z,1515283200,2018,0,0,7.0,7.0,-72.9126,-130.8774,976.6,-0.78,-999.0,yes,yes,no,300234064034030,BD2GI,AOML,Palmer,South
2018-01-07T01:00:28Z,1515286829,2018,1,0,7.042,7.042,-72.9162,-130.8886,976.4,-0.39,-999.0,yes,yes,no,300234064034030,BD2GI,AOML,Palmer,South
2018-01-07T01:59:31Z,1515290371,2018,2,0,7.083,7.083,-72.9232,-130.9022,976.4,-0.38,-999.0,yes,yes,no,300234064034030,BD2GI,AOML,Palmer,South
2018-01-07T03:00:00Z,1515294000,2018,3,0,7.125,7.125,-72.9326,-130.9222,976.4,-0.81,-999.0,yes,yes,no,300234064034030,BD2GI,AOML,Palmer,South
2018-01-07T04:00:28Z,1515297629,2018,4,0,7.167,7.167,-72.9446,-130.9504,976.3,-0.72,-999.0,yes,yes,no,300234064034030,BD2GI,AOML,Palmer,South
2018-01-07T04:59:31Z,1515301171,2018,5,0,7.208,7.208,-72.9554,-130.9762,976.7,-0.44,-999.0,yes,yes,no,300234064034030,BD2GI,AOML,Palmer,South
2018-01-07T06:00:00Z,1515304800,2018,6,0,7.25,7.25,-72.9632,-130.9924,977.1,-0.43,-999.0,yes,yes,no,300234064034030,BD2GI,AOML,Palmer,South
2018-01-07T07:00:28Z,1515308429,2018,7,0,7.292,7.292,-72.9698,-131.0064,977.5,-0.31,-999.0,yes,yes,no,300234064034030,BD2GI,AOML,Palmer,South
2018-01-07T07:59:31Z,1515311971,2018,8,0,7.333,7.333,-72.9772,-131.0306,978.1,-0.48,-999.0,yes,yes,no,300234064034030,BD2GI,AOML,Palmer,South
2018-01-07T09:00:00Z,1515315600,2018,9,0,7.375,7.375,-72.983,-131.0558,978.8,-0.48,-999.0,yes,yes,no,300234064034030,BD2GI,AOML,Palmer,South
2018-01-07T10:00:28Z,1515319229,2018,10,0,7.417,7.417,-72.9872,-131.0786,979.5,-0.42,-999.0,yes,yes,no,300234064034030,BD2GI,AOML,Palmer,South
2018-01-07T10:59:31Z,1515322771,2018,11,0,7.458,7.458,-72.989,-131.1022,980.2,-0.6,-999.0,yes,yes,no,300234064034030,BD2GI,AOML,Palmer,South
2018-01-07T12:00:00Z,1515326400,2018,12,0,7.5,7.5,-72.9898,-131.1264,981.0,-0.49,-999.0,yes,yes,no,300234064034030,BD2GI,AOML,Palmer,South
2018-01-07T13:00:28Z,1515330029,2018,13,0,7.542,7.542,-72.9902,-131.1434,981.6,-0.34,-999.0,yes,yes,no,300234064034030,BD2GI,AOML,Palmer,South
2018-01-07T13:59:31Z,1515333571,2018,14,0,7.583,7.583,-72.9914,-131.1582,982.4,-0.33,-999.0,yes,yes,no,300234064034030,BD2GI,AOML,Palmer,South
2018-01-07T15:00:00Z,1515337200,2018,15,0,7.625,7.625,-72.9938,-131.1724,983.3,-0.34,-999.0,yes,yes,no,300234064034030,BD2GI,AOML,Palmer,South
2018-01-07T16:00:28Z,1515340829,2018,16,0,7.667,7.667,-72.9962,-131.183,984.2,-0.34,-999.0,yes,yes,no,300234064034030,BD2GI,AOML,Palmer,South
2018-01-07T16:59:31Z,1515344371,2018,17,0,7.708,7.708,-72.9982,-131.1908,985.1,-0.33,-999.0,yes,yes,no,300234064034030,BD2GI,AOML,Palmer,South
2018-01-07T18:00:00Z,1515348000,2018,18,0,7.75,7.75,-72.9988,-131.1956,985.6,-0.33,-999.0,yes,yes,no,300234064034030,BD2GI,AOML,Palmer,South
2018-01-07T19:00:28Z,1515351629,2018,19,0,7.792,7.792,-72.9978,-131.1998,986.7,-0.31,-999.0,yes,yes,no,300234064034030,BD2GI,AOML,Palmer,South
2018-01-07T19:59:31Z,1515355171,2018,20,0,7.833,7.833,-72.9966,-131.2032,987.6,-0.26,-999.0,yes,yes,no,300234064034030,BD2GI,AOML,Palmer,South
2018-01-07T21:00:00Z,1515358800,2018,21,0,7.875,7.875,-72.9952,-131.2072,988.2,-0.2,-999.0,yes,yes,no,300234064034030,BD2GI,AOML,Palmer,South
2018-01-07T22:00:28Z,1515362429,2018,22,0,7.917,7.917,-72.9936,-131.2112,989.1,-0.16,-999.0,yes,yes,no,300234064034030,BD2GI,AOML,Palmer,South
2018-01-07T22:59:31Z,1515365971,2018,23,0,7.958,7.958,-72.9922,-131.216,989.7,-0.11,-999.0,yes,yes,no,300234064034030,BD2GI,AOML,Palmer,South
2018-01-08T00:00:00Z,1515369600,2018,0,0,8.0,8.0,-72.9916,-131.22,990.7,-0.07,-999.0,yes,yes,no,300234064034030,BD2GI,AOML,Palmer,South
2018-01-08T01:00:28Z,1515373229,2018,1,0,8.042,8.042,-72.9916,-131.223,991.3,0.09,-999.0,yes,yes,no,300234064034030,BD2GI,AOML,Palmer,South
2018-01-08T01:59:31Z,1515376771,2018,2,0,8.083,8.083,-72.9922,-131.2256,992.2,0.27,-999.0,yes,yes,no,300234064034030,BD2GI,AOML,Palmer,South
2018-01-08T03:00:00Z,1515380400,2018,3,0,8.125,8.125,-72.9934,-131.2274,992.7,0.16,-999.0,yes,yes,no,300234064034030,BD2GI,AOML,Palmer,South
2018-01-08T04:00:28Z,1515384029,2018,4,0,8.167,8.167,-72.995,-131.2258,993.7,0.22,-999.0,yes,yes,no,300234064034030,BD2GI,AOML,Palmer,South
2018-01-08T04:59:31Z,1515387571,2018,5,0,8.208,8.208,-72.9964,-131.2212,994.2,0.17,-999.0,yes,yes,no,300234064034030,BD2GI,AOML,Palmer,South
2018-01-08T06:00:00Z,1515391200,2018,6,0,8.25,8.25,-72.9972,-131.2128,994.9,0.11,-999.0,yes,yes,no,300234064034030,BD2GI,AOML,Palmer,South
2018-01-08T07:00:28Z,1515394829,2018,7,0,8.292,8.292,-72.9968,-131.2044,995.4,0.13,-999.0,yes,yes,no,300234064034030,BD2GI,AOML,Palmer,South
2018-01-08T07:59:31Z,1515398371,2018,8,0,8.333,8.333,-72.9958,-131.1998,995.9,0.11,-999.0,yes,yes,no,300234064034030,BD2GI,AOML,Palmer,South
2018-01-08T09:00:00Z,1515402000,2018,9,0,8.375,8.375,-72.995,-131.1992,996.1,0.06,-999.0,yes,yes,no,300234064034030,BD2GI,AOML,Palmer,South
2018-01-08T10:00:28Z,1515405629,2018,10,0,8.417,8.417,-72.9946,-131.2002,996.7,-0.03,-999.0,yes,yes,no,300234064034030,BD2GI,AOML,Palmer,South
2018-01-08T10:59:31Z,1515409171,2018,11,0,8.458,8.458,-72.9952,-131.2038,997.0,0.0,-999.0,yes,yes,no,300234064034030,BD2GI,AOML,Palmer,South
2018-01-08T12:00:00Z,1515412800,2018,12,0,8.5,8.5,-72.9968,-131.206,997.2,0.08,-999.0,yes,yes,no,300234064034030,BD2GI,AOML,Palmer,South
2018-01-08T13:00:28Z,1515416429,2018,13,0,8.542,8.542,-72.9992,-131.2062,997.6,0.09,-999.0,yes,yes,no,300234064034030,BD2GI,AOML,Palmer,South
2018-01-08T13:59:31Z,1515419971,2018,14,0,8.583,8.583,-73.002,-131.202,997.6,0.04,-999.0,yes,yes,no,300234064034030,BD2GI,AOML,Palmer,South
2018-01-08T15:00:00Z,1515423600,2018,15,0,8.625,8.625,-73.0038,-131.1966,997.6,0.07,-999.0,yes,yes,no,300234064034030,BD2GI,AOML,Palmer,South
2018-01-08T16:00:28Z,1515427229,2018,16,0,8.667,8.667,-73.0052,-131.1916,997.6,0.18,-999.0,yes,yes,no,300234064034030,BD2GI,AOML,Palmer,South
2018-01-08T16:59:31Z,1515430771,2018,17,0,8.708,8.708,-73.0066,-131.187,997.6,0.33,-999.0,yes,yes,no,300234064034030,BD2GI,AOML,Palmer,South
2018-01-08T18:00:00Z,1515434400,2018,18,0,8.75,8.75,-73.0078,-131.1824,997.8,0.39,-999.0,yes,yes,no,300234064034030,BD2GI,AOML,Palmer,South
2018-01-08T19:00:28Z,1515438029,2018,19,0,8.792,8.792,-73.009,-131.179,997.7,0.44,-999.0,yes,yes,no,300234064034030,BD2GI,AOML,Palmer,South
2018-01-08T19:59:31Z,1515441571,2018,20,0,8.833,8.833,-73.0098,-131.1788,997.9,0.55,-999.0,yes,yes,no,300234064034030,BD2GI,AOML,Palmer,South
2018-01-08T21:00:00Z,1515445200,2018,21,0,8.875,8.875,-73.0076,-131.191,997.9,0.59,-999.0,yes,yes,no,300234064034030,BD2GI,AOML,Palmer,South
2018-01-08T22:00:28Z,1515448829,2018,22,0,8.917,8.917,-73.0056,-131.2072,997.8,-0.13,-999.0,yes,yes,no,300234064034030,BD2GI,AOML,Palmer,South
2018-01-08T22:59:31Z,1515452371,2018,23,0,8.958,8.958,-73.0042,-131.2212,998.0,0.41,-999.0,yes,yes,no,300234064034030,BD2GI,AOML,Palmer,South
2018-01-09T00:00:00Z,1515456000,2018,0,0,9.0,9.0,-73.0066,-131.2392,998.2,0.5,-999.0,yes,yes,no,300234064034030,BD2GI,AOML,Palmer,South
2018-01-09T01:00:28Z,1515459629,2018,1,0,9.042,9.042,-73.0116,-131.2582,998.3,0.23,-999.0,yes,yes,no,300234064034030,BD2GI,AOML,Palmer,South
2018-01-09T01:59:31Z,1515463171,2018,2,0,9.083,9.083,-73.0168,-131.278,998.5,0.05,-999.0,yes,yes,no,300234064034030,BD2GI,AOML,Palmer,South
2018-01-09T03:00:00Z,1515466800,2018,3,0,9.125,9.125,-73.0218,-131.2932,998.3,-0.22,-999.0,yes,yes,no,300234064034030,BD2GI,AOML,Palmer,South
2018-01-09T04:00:28Z,1515470429,2018,4,0,9.167,9.167,-73.0244,-131.297,998.1,-0.2,-999.0,yes,yes,no,300234064034030,BD2GI,AOML,Palmer,South
2018-01-09T04:59:31Z,1515473971,2018,5,0,9.208,9.208,-73.0238,-131.2924,997.8,-0.03,-999.0,yes,yes,no,300234064034030,BD2GI,AOML,Palmer,South
2018-01-09T06:00:00Z,1515477600,2018,6,0,9.25,9.25,-73.021,-131.2908,997.9,0.18,-999.0,yes,yes,no,300234064034030,BD2GI,AOML,Palmer,South
2018-01-09T07:00:28Z,1515481229,2018,7,0,9.292,9.292,-73.0132,-131.3068,997.8,0.09,-999.0,yes,yes,no,300234064034030,BD2GI,AOML,Palmer,South
2018-01-09T07:59:31Z,1515484771,2018,8,0,9.333,9.333,-73.0064,-131.3288,997.8,0.0,-999.0,yes,yes,no,300234064034030,BD2GI,AOML,Palmer,South
2018-01-09T09:00:00Z,1515488400,2018,9,0,9.375,9.375,-72.9998,-131.3616,997.8,-0.11,-999.0,yes,yes,no,300234064034030,BD2GI,AOML,Palmer,South
2018-01-09T10:00:28Z,1515492029,2018,10,0,9.417,9.417,-72.9958,-131.3938,997.9,-0.14,-999.0,yes,yes,no,300234064034030,BD2GI,AOML,Palmer,South
2018-01-09T10:59:31Z,1515495571,2018,11,0,9.458,9.458,-72.993,-131.4254,997.6,-0.56,-999.0,yes,yes,no,300234064034030,BD2GI,AOML,Palmer,South
2018-01-09T12:00:00Z,1515499200,2018,12,0,9.5,9.5,-72.9906,-131.4536,997.4,-0.24,-999.0,yes,yes,no,300234064034030,BD2GI,AOML,Palmer,South
2018-01-09T13:00:28Z,1515502829,2018,13,0,9.542,9.542,-72.9906,-131.476,997.4,-0.33,-999.0,yes,yes,no,300234064034030,BD2GI,AOML,Palmer,South
2018-01-09T13:59:31Z,1515506371,2018,14,0,9.583,9.583,-72.9926,-131.4888,997.0,-0.36,-999.0,yes,yes,no,300234064034030,BD2GI,AOML,Palmer,South
2018-01-09T15:00:00Z,1515510000,2018,15,0,9.625,9.625,-72.9934,-131.4912,996.8,-0.06,-999.0,yes,yes,no,300234064034030,BD2GI,AOML,Palmer,South
2018-01-09T16:00:28Z,1515513629,2018,16,0,9.667,9.667,-72.9926,-131.4906,996.5,-0.05,-999.0,yes,yes,no,300234064034030,BD2GI,AOML,Palmer,South
2018-01-09T16:59:31Z,1515517171,2018,17,0,9.708,9.708,-72.9916,-131.4916,996.2,0.0,-999.0,yes,yes,no,300234064034030,BD2GI,AOML,Palmer,South
2018-01-09T18:00:00Z,1515520800,2018,18,0,9.75,9.75,-72.991,-131.4918,995.7,0.06,-999.0,yes,yes,no,300234064034030,BD2GI,AOML,Palmer,South
2018-01-09T19:00:28Z,1515524429,2018,19,0,9.792,9.792,-72.9896,-131.4926,995.4,0.0,-999.0,yes,yes,no,300234064034030,BD2GI,AOML,Palmer,South
2018-01-09T19:59:31Z,1515527971,2018,20,0,9.833,9.833,-72.9878,-131.4956,995.2,0.0,-999.0,yes,yes,no,300234064034030,BD2GI,AOML,Palmer,South
2018-01-09T21:00:00Z,1515531600,2018,21,0,9.875,9.875,-72.986,-131.5,994.6,0.07,-999.0,yes,yes,no,300234064034030,BD2GI,AOML,Palmer,South
2018-01-09T22:00:28Z,1515535229,2018,22,0,9.917,9.917,-72.9844,-131.5094,994.2,0.18,-999.0,yes,yes,no,300234064034030,BD2GI,AOML,Palmer,South
2018-01-09T22:59:31Z,1515538771,2018,23,0,9.958,9.958,-72.9846,-131.521,993.9,0.32,-999.0,yes,yes,no,300234064034030,BD2GI,AOML,Palmer,South
2018-01-10T00:00:00Z,1515542400,2018,0,0,10.0,10.0,-72.9848,-131.5316,993.6,0.31,-999.0,yes,yes,no,300234064034030,BD2GI,AOML,Palmer,South
2018-01-10T01:00:28Z,1515546029,2018,1,0,10.042,10.042,-72.9856,-131.5386,993.2,0.34,-999.0,yes,yes,no,300234064034030,BD2GI,AOML,Palmer,South
2018-01-10T01:59:31Z,1515549571,2018,2,0,10.083,10.083,-72.9872,-131.543,992.9,0.41,-999.0,yes,yes,no,300234064034030,BD2GI,AOML,Palmer,South
2018-01-10T03:00:00Z,1515553200,2018,3,0,10.125,10.125,-72.9886,-131.5442,992.6,0.4,-999.0,yes,yes,no,300234064034030,BD2GI,AOML,Palmer,South
2018-01-10T04:00:28Z,1515556829,2018,4,0,10.167,10.167,-72.9894,-131.5444,992.2,0.24,-999.0,yes,yes,no,300234064034030,BD2GI,AOML,Palmer,South
2018-01-10T04:59:31Z,1515560371,2018,5,0,10.208,10.208,-72.9894,-131.5428,991.8,0.38,-999.0,yes,yes,no,300234064034030,BD2GI,AOML,Palmer,South
2018-01-10T06:00:00Z,1515564000,2018,6,0,10.25,10.25,-72.988,-131.543,991.5,0.35,-999.0,yes,yes,no,300234064034030,BD2GI,AOML,Palmer,South
2018-01-10T07:00:28Z,1515567629,2018,7,0,10.292,10.292,-72.9862,-131.5476,991.4,0.2,-999.0,yes,yes,no,300234064034030,BD2GI,AOML,Palmer,South